STARLINK-35940, 66617

Orbit data source: Space-Track

STARLINK-35940, 66617 is a payload satellite owned by SpaceX/Seattle (US) in LEO that was launched on Sun, 23 Nov 2025 UTC via an FALCON 9 launch vehicle from the Air Force Western Test Range (AFWTR). Payload-class satellites include a variety of spacecraft equipped with specific instruments for various scientific and technological missions. These include communications satellites like Starlink; space stations such as the ISS; scientific satellites like the Hubble; Earth observation satellites from companies like Planet Labs, Umbra, and HawkEye 360; GPS; miniature CubeSats for education and research; and military/defense satellites.

Loading next visibility...
Identifier
66617, 2025-271A
Orbit
LEO
Country
Flag of USUS
Related business
Manufacturer
SpaceX/Seattle
Mission
Operational Commercial Communications
Bus & Motor
STARLINK V2MO, Unknown motor
Mass
575 kg wet, ~530 kg dry
Launch date (UTC)
2025-11-23 (10 months ago)
Launch vehicle
FALCON 9
Launch site
Air Force Western Test Range (AFWTR)
Object type
Payload
Rocket body
Debris
Shape & HBR
Box + 1 Pan, 17.7 m
Radar Cross Section
41.120 m², Large (>1 m²)

Expand to show TLE details & history
Last TLE update: 2 days ago

TLE from 2 days ago
0 STARLINK-35940
1 66617U 25271A   26264.41033552  .00023755  00000-0  71185-3 0  9993
2 66617  53.1597 309.3351 0001346  86.2830 273.8327 15.34405340 47555
Epoch: 2026-09-21T09:50Z
TLE epoch observation values (Epoch: 2026-09-21T09:50:52.988Z)
Latitude
-0°
Longitude
161.32375°
Altitude
463.527 km
Speed
7.636 km/s
True Right ascension
20h 37m 20s
True Declination
0° 00' 00"
Sunlit
Object was in full shadow at epoch
Visualization orbit readout
Latitude
Unknown
Longitude
Unknown
Altitude
Unknown
Speed
Unknown
Apparent Right ascension
Unknown
Apparent Declination
Unknown
Sunlit
N/A
Visualization observer readout
Local Sidereal Time
17:12:48
Azimuth
Unknown
Elevation
Unknown
Doppler factor
Unknown
Orbital elements
Apogee altitude
463.865 km
Perigee altitude
462.023 km
Semi-major axis
6,841.081 km
Eccentricity
0.00013
Inclination
53.1597°
RAAN
309.3351°
Arg. of periapsis
86.283°
True anomaly
273.81731°
Mean anomaly
273.8327°
Eccentric anomaly
273.82501°
Mean motion
3.8358 °/min
Orbital period
93.85 mins
BSTAR
0.00071185
Loading maneuver chart data...
Computing Atmospheric mass density...
Loading historical data...
Loading historical data...
Loading historical data...
Loading historical data...
Loading historical data...
Loading historical data...
Loading historical data...

Documentation

Showing up to 5 results
|